www.pogodaiklimat.ru

Погода и климат >> Архив погоды >> Россия >> Крым >> Ангарский Перевал


ПОГОДА на Ангарском Перевале

  • Прогноз погоды на Ангарском Перевале
  • Монитор погоды на Ангарском Перевале

АРХИВ ПОГОДЫ на Ангарском Перевале

Время (UTC), дата Ветер
(напр.,м/с)
 
Видим.   Явления Облачность Т
(С)
Тd
(С)
f
(%)
Тe
(С)
Тes
(С)
Комфортность P
(гПа)
Po
(гПа)
Тmin
(С)
Tmax
(С)
R
(мм)
R24
(мм)
S
(см)
06 12.07 СЗ 1 20 км 6/5 300 м
[Cu med, cong Ac trans]
+17.3 +9.7 61 +18 +23 1008.3 922.1 +10.1
09 12.07 Ю 2 20 км {ливн. осадки} 9/8 300 м
[Cb cap Ac trans Ci fib]
+17.0 +8.4 57 +17 +20 1008.7 922.3
12 12.07 С 1 20 км слаб. ливневой дождь {гроза} 9/9 300 м
[Cb cap]
+12.6 +11.2 91 +13 +14 1010.5 922.8
15 12.07 СЗ 2 20 км слаб. ливневой дождь 10/10 300 м
[Cb cap]
+11.9 +11.0 94 +11 +11 1010.8 922.9 6
18 12.07 СЗ 1 20 км в посл. час ливневой дождь 8/6 600 м
[Cb cap Ac trans]
+10.4 +9.2 92 +10 +10 1011.5 923.0 +18.4 7
21 12.07 СЗ 1 4000 м ливневой дождь 9/9 600 м
[Cb cap]
+10.3 +9.3 94 +10 +10 1011.4 922.9
00 13.07 С 3 20 км зарница {ливн. осадки} 5/3 300 м
[Cu med, cong Ci fib]
+11.5 +10.2 92 +10 +10 1010.0 922.0
03 13.07 СЗ 2 20 км 4/4 300 м
[Cu med, cong]
+11.9 +9.9 88 +11 +11 1010.1 922.2 +9.5 3
09 13.07 СЗ 2 20 км 8/8 300 м
[Cb cap]
+16.9 +9.4 61 +17 +21 1010.2 923.7
12 13.07 З 2 20 км 8/8 300 м
[Cb cap]
+19.4 +11.2 59 +21 +24 комфорт 1009.1 923.5
15 13.07 ЮВ 1 20 км {гроза} 8/8 600 м
[Cb cap]
+17.0 +10.9 67 +18 +19 1010.1 923.7
18 13.07 СЗ 1 20 км {гроза} ясно +14.2 +11.6 84 +15 +15 1011.5 924.2 +20.0
21 13.07 СЗ 1 20 км ясно +11.4 +10.2 92 +11 +11 1012.6 924.3
00 14.07 З 1 20 км ясно +10.7 +9.3 91 +10 +10 1011.9 923.5
03 14.07 штиль 0 20 км 9/0
[Ci fib]
+12.0 +8.8 81 +11 +12 1011.3 923.3 +10.1
06 14.07 Ю 3 20 км 6/3 600 м
[Cu med, cong Ci fib]
+17.2 +10.9 66 +17 +22 1009.4 923.1 +10.1
09 14.07 Ю 3 20 км 8/5 600 м
[Cu med, cong Ci fib]
+18.7 +10.5 59 +19 +26 1008.6 922.8
12 14.07 ЮВ 2 20 км 9/4 600 м
[Cu med, cong Ac lent Ci fib]
+18.1 +11.8 67 +19 +24 1008.0 922.1
15 14.07 ЮВ 3 50 км 9/3 600 м
[Cu med, cong Ac lent Ci fib]
+17.2 +11.3 68 +17 +18 1007.8 921.7
18 14.07 штиль 0 10 км 4/4 300 м
[Sc]
+13.2 +10.1 81 +13 +13 1009.1 921.7 +19.1
21 14.07 штиль 0 20 км 8/0
[Ac lent Ci fib]
+12.2 +8.1 76 +12 +12 1008.6 920.9
00 15.07 штиль 0 20 км 4/0
[Ci fib]
+11.6 +6.7 72 +11 +11 1007.1 919.3
03 15.07 штиль 0 20 км 10/4 600 м
[Sc Ac As]
+13.4 +10.2 81 +13 +13 1006.4 919.3 +10.4
06 15.07 ЮВ 2 20 км 10/0
[Ac As]
+17.1 +10.4 65 +17 +20 1005.1 919.2 +10.4
09 15.07 СВ 1 20 км 10/3 600 м
[Cu med, cong Ac As]
+19.7 +12.4 63 +22 +27 комфорт 1003.6 918.5
12 15.07 СЗ 1 20 км гроза без осадков 10/6 600 м
[Cb cap As op]
+17.9 +10.4 61 +19 +20 1004.0 918.4
15 15.07 Ю 2 4000 м гроза, ливневой дождь 10/10 200 м
[Cb cap]
+13.7 +12.9 95 +13 +13 1006.7 919.7 3
18 15.07 СЗ 2 20 км в посл. час ливневой дождь {гроза} 10/0
[Ac As]
+12.6 +11.5 93 +12 +12 1007.9 920.5 +20.0 9
21 15.07 СЗ 1 20 км 10/3 600 м
[Cu med, cong Ac As]
+12.0 +11.0 94 +12 +12 1008.4 920.7
00 16.07 СЗ 1 10 км слаб. ливневой дождь 10/6 300 м
[Cb cap Ac As]
+12.8 +11.9 94 +13 +13 1007.6 920.3
03 16.07 С 1 20 км {ливн. осадки} 6/0
[Ac As Ci fib]
+12.3 +11.3 94 +12 +12 1008.0 920.5 +11.7 6
06 16.07 С 1 20 км {ливн. осадки} 1/1 300 м
[Cu med, cong]
+17.3 +13.4 78 +18 +28 1007.1 921.1 +11.7 0.3
09 16.07 СЗ 2 20 км гроза без осадков 8/6 600 м
[Cb cap Ci ing]
+21.1 +13.2 61 +23 +30 комфорт 1006.2 921.3
12 16.07 СЗ 2 50 км {гроза} 6/4 600 м
[Cu med, cong Ci ing]
+21.0 +10.7 52 +24 +32 комфорт 1006.8 921.8
15 16.07 С 1 20 км 8/6 600 м
[Cb cap Ac und]
+18.9 +12.1 65 +21 +22 комфорт 1008.2 922.5
18 16.07 СЗ 1 20 км {ливн. осадки} 3/3 600 м
[Sc diur, vesp Ci fib]
+15.0 +12.8 87 +15 +15 1009.9 923.0 +21.7 0.3
21 16.07 СЗ 2 20 км ясно +12.4 +11.2 92 +11 +11 1011.0 923.2
00 17.07 З 2 20 км ясно +13.6 +9.1 74 +13 +13 1009.9 922.5
03 17.07 З 1 20 км 9/0
[Ci fib]
+12.8 +10.1 84 +13 +13 1009.8 922.2 +12.1 0.3
06 17.07 штиль 0 20 км 9/0
[Ac trans Cc]
+18.6 +12.5 68 +19 +27 1007.8 922.1 +12.1
09 17.07 Ю 1 10 км в посл. час ливневой дождь 9/9 300 м
[Cb cap]
+17.2 +15.5 90 +18 +20 1008.2 922.2
12 17.07 Ю 2 20 км в посл. час гроза {ливн. осадки} 8/8 300 м
[Cb calv]
+18.8 +15.6 82 +20 +23 1007.7 922.2
15 17.07 ЮВ 1 20 км в посл. час ливневой дождь 8/8 300 м
[Cb cap]
+18.4 +16.4 88 +20 +21 1007.1 921.5 2
18 17.07 штиль 0 20 км {ливн. осадки} 5/5 600 м
[Cu med, cong]
+15.5 +13.7 89 +15 +15 1008.6 922.0 +20.1 2
21 17.07 З 1 20 км 3/0
[Ac trans]
+14.0 +12.9 93 +14 +14 1009.5 922.4
00 18.07 З 1 20 км 3/3 600 м
[Sc]
+13.7 +12.0 89 +14 +14 1009.3 922.1
03 18.07 СЗ 1 20 км 3/0
[Ac cast]
+13.2 +10.1 81 +13 +14 1009.8 922.3 +12.2
06 18.07 СЗ 1 20 км ясно +19.6 +12.3 63 +22 +32 комфорт 1008.4 922.9 +12.2
09 18.07 З 1 20 км 6/6 600 м
[Cb cap]
+23.0 +10.5 45 +25 +33 комфорт 1008.3 923.7
12 18.07 ЮВ 1 20 км 9/8 600 м
[Cb cap Ci fib]
+21.6 +11.6 53 +24 +27 комфорт 1009.1 924.1
15 18.07 СЗ 1 20 км 8/8 300 м
[Cu Sc]
+20.4 +12.2 59 +23 +24 комфорт 1010.3 924.9
18 18.07 штиль 0 20 км 3/3 600 м
[Cu hum]
+17.2 +11.1 67 +17 +17 1012.4 925.9 +23.1
03 19.07 З 1 20 км ясно +14.2 +10.2 77 +15 +15 1015.8 928.1 +12.8

 

Местоположение метеостанции Ангарский Перевал (Крым, Россия): широта 44.75 долгота 34.35 высота над уровнем моря 769 м.

В архиве по умолчанию представлена погода на Ангарском Перевале за последнюю неделю. Архивные данные за месяц целиком и за предыдущие месяцы, начиная с января 2011 года, Вы можете получить, выбрав интересующий диапазон дат из раскрывающегося списка и нажав кнопку "Ввод!".


*Определитесь, кто Вы:
робот инопланетянин человек

Внимание! Время в таблицах - всемирное. Для получения местного времени необходимо прибавить поправку, которая равна 3 ч.

Смотрите также архив погоды в соседних городах и на ближайших метеорологических станциях:

Погода в Алуште (Крым, Россия) (10 км)
Погода в Никитском саду (Крым, Россия) (27 км)
Погода в Симферополе город (Крым, Россия) (29 км)
Погода в Почтовом (Крым, Россия) (33 км)
Погода в Ялте (Крым, Россия) (33 км)
Погода на Ай-Петри (Крым, Россия) (38 км)
Погода в Белогорске (Крым, Россия) (39 км)
Погода в Симферополе (Крым, Россия) (43 км)
Погода в Севастополе (город Севастополь, Россия) (66 км)
Погода в Карадаге (Крым, Россия) (69 км)

Пояснения к столбцам:

Ветер - указаны скорость ветра в м/с - средняя за 10 мин, порывы в срок и между сроками (в фигурных скобках) и направление, откуда дует ветер: С - северный, СВ - северо-восточный, В - восточный, ЮВ - юго-восточный, Ю - южный, ЮЗ - юго-западный, З - западный, СЗ - северо-западный.
Видимость - горизонтальная дальность видимости в метрах или километрах. При видимости от 1 до 10 км при отсутствии осадков обычно наблюдается дымка, при ухудшении видимости до 1 км и менее - туман. В сухую погоду видимость может ухудшаться дымом, пылью или мглою.
Явления - указаны атмосферные явления, наблюдавшиеся в срок или в последний час перед сроком; фигурными скобками обозначены явления, наблюдавшиеся между сроками (за 1-3 часа до срока); квадратными скобками обозначены град или гололедные отложения с указанием их диаметра в мм.
Облачность - указаны через наклонную черту общая и нижняя облачность в баллах и высота нижней границы облаков в метрах; квадратными скобками обозначены формы облаков: Ci - перистые, Cs - перисто-слоистые, Cc - перисто-кучевые, Ac - высококучевые, As - высокослоистые, Sc - слоисто-кучевые, Ns - слоисто-дождевые, Cu - кучевые, Cb - кучево-дождевые. Подробнее классификацию облаков см. в Атласе облаков (PDF).
T - Температура воздуха - температура, измеренная на высоте 2 м над землей.
Td - Температура точки росы - температура, при понижении до которой содержащийся в воздухе водяной пар достигнет насыщения.
f - Относительная влажность воздуха - влажноcть воздуха, измеренная на высоте 2 м над землей.
Te - Эффективная температура - температура, которую ощущает одетый по сезону человек в тени. Характеристика душности погоды. При расчете учитывается влияние влажности воздуха и скорости ветра на теплоощущения человека.
Tes - Эффективная температура на солнце - температура, которую ощущает человек, с поправкой на солнечный нагрев. Характеристика знойности погоды. Зависит от высоты солнца над горизонтом, облачности и скорости ветра. Ночью, в пасмурную погоду, а также при ветре 12 м/с и более поправка равна нулю.
P - Атмосферное давление - приведенное к уровню моря атмосферное давление.
Po - Атмосферное давление - измеренное на уровне метеостанции атмосферное давление.
Tmin - Минимальная температура - минимум температуры воздуха на высоте 2 м над землей.
Tmax - Максимальная температура - максимум температуры воздуха на высоте 2 м над землей.
R - Количество осадков - Количество выпавших осадков за период времени, мм. При наведении курсора мыши на число - период времени, за который выпало указанное количество осадков.
R24 - Количество осадков - Количество выпавших осадков за 24 часа, мм.
S - Снежный покров - Высота снежного покрова, см. При наведении курсора мыши на число - состояние снежного покрова и степень покрытия местности в баллах.